SB KEPS @ AMSAT $ORB12012.O
Orbital Elements 12012.OSCAR
HR AMSAT ORBITAL ELEMENTS FOR OSCAR SATELLITES
FROM WA5QGD FORT WORTH,TX January 12, 2012
Send SUBSCRIBE KEPS/UNSUBSCRIBE KEPS to majordomo(a)amsat.org only
BID: ORB12012.O
TO ALL RADIO AMATEURS BT
Satellite: AO-07
Catalog number: 07530
Epoch time: 12011.68883717
Element set: 0280
Inclination: 101.3970 deg
RA of node: 015.0216 deg
Eccentricity: 0.0011844
Arg of perigee: 230.7597 deg
Mean anomaly: 129.2424 deg
Mean motion: 12.53586964 rev/day
Decay rate: -2.7e-07 rev/day^2
Epoch rev: 70031
Checksum: 277
Satellite: FO-29
Catalog number: 24278
Epoch time: 12012.92920602
Element set: 750
Inclination: 098.5749 deg
RA of node: 134.1213 deg
Eccentricity: 0.0351286
Arg of perigee: 073.9280 deg
Mean anomaly: 290.0237 deg
Mean motion: 13.52975109 rev/day
Decay rate: -6.5e-07 rev/day^2
Epoch rev: 76082
Checksum: 304
Satellite: SO-33
Catalog number: 25509
Epoch time: 12012.74892320
Element set: 142
Inclination: 031.4345 deg
RA of node: 138.8976 deg
Eccentricity: 0.0353425
Arg of perigee: 274.5501 deg
Mean anomaly: 081.4866 deg
Mean motion: 14.28649941 rev/day
Decay rate: 3.55e-06 rev/day^2
Epoch rev: 69026
Checksum: 310
Satellite: RS-22
Catalog number: 27939
Epoch time: 12012.68223029
Element set: 984
Inclination: 097.8226 deg
RA of node: 221.4126 deg
Eccentricity: 0.0014235
Arg of perigee: 044.7950 deg
Mean anomaly: 315.4397 deg
Mean motion: 14.63864553 rev/day
Decay rate: 4.47e-06 rev/day^2
Epoch rev: 44298
Checksum: 318
Satellite: VO-52
Catalog number: 28650
Epoch time: 12011.88890987
Element set: 0997
Inclination: 097.6167 deg
RA of node: 050.4244 deg
Eccentricity: 0.0026115
Arg of perigee: 195.3594 deg
Mean anomaly: 164.6801 deg
Mean motion: 14.82608848 rev/day
Decay rate: 1.319e-05 rev/day^2
Epoch rev: 36166
Checksum: 341
Satellite: SO-67
Catalog number: 35870
Epoch time: 12012.43576572
Element set: 581
Inclination: 097.2545 deg
RA of node: 053.6653 deg
Eccentricity: 0.0003062
Arg of perigee: 037.1181 deg
Mean anomaly: 076.9794 deg
Mean motion: 15.22533270 rev/day
Decay rate: 4.105e-05 rev/day^2
Epoch rev: 12875
Checksum: 301
Satellite: HO-68
Catalog number: 36122
Epoch time: 12012.79206796
Element set: 98
Inclination: 100.3871 deg
RA of node: 075.1564 deg
Eccentricity: 0.0007772
Arg of perigee: 106.2309 deg
Mean anomaly: 253.9657 deg
Mean motion: 13.16292364 rev/day
Decay rate: -4.4e-07 rev/day^2
Epoch rev: 9981
Checksum: 310
/EX
SB KEPS @ AMSAT $ORB12012.D
Orbital Elements 12012.MICROS
HR AMSAT ORBITAL ELEMENTS FOR THE MICROSATS
FROM WA5QGD FORT WORTH,TX January 12, 2012
Send SUBSCRIBE KEPS/UNSUBSCRIBE KEPS to majordomo(a)amsat.org only
BID: ORB12012.D
TO ALL RADIO AMATEURS BT
Satellite: UO-11
Catalog number: 14781
Epoch time: 12011.96942681
Element set: 0759
Inclination: 097.9786 deg
RA of node: 072.7112 deg
Eccentricity: 0.0009089
Arg of perigee: 174.9878 deg
Mean anomaly: 185.1427 deg
Mean motion: 14.80272496 rev/day
Decay rate: 3.56e-06 rev/day^2
Epoch rev: 49667
Checksum: 357
Satellite: AO-16
Catalog number: 20439
Epoch time: 12011.87773005
Element set: 0381
Inclination: 098.4118 deg
RA of node: 319.8121 deg
Eccentricity: 0.0010034
Arg of perigee: 266.3719 deg
Mean anomaly: 093.6315 deg
Mean motion: 14.32006508 rev/day
Decay rate: 1.29e-06 rev/day^2
Epoch rev: 14748
Checksum: 279
Satellite: LO-19
Catalog number: 20442
Epoch time: 12011.92476928
Element set: 0311
Inclination: 098.3767 deg
RA of node: 323.4273 deg
Eccentricity: 0.0011008
Arg of perigee: 256.7438 deg
Mean anomaly: 103.2520 deg
Mean motion: 14.32227972 rev/day
Decay rate: 1.33e-06 rev/day^2
Epoch rev: 14767
Checksum: 282
Satellite: AO-27
Catalog number: 22825
Epoch time: 12011.96200207
Element set: 0007
Inclination: 098.5571 deg
RA of node: 317.3717 deg
Eccentricity: 0.0008952
Arg of perigee: 026.5595 deg
Mean anomaly: 333.6043 deg
Mean motion: 14.29420394 rev/day
Decay rate: 1.43e-06 rev/day^2
Epoch rev: 95401
Checksum: 283
Satellite: IO-26
Catalog number: 22826
Epoch time: 12011.85278423
Element set: 0768
Inclination: 098.5518 deg
RA of node: 317.6775 deg
Eccentricity: 0.0009545
Arg of perigee: 020.9580 deg
Mean anomaly: 339.1989 deg
Mean motion: 14.29689917 rev/day
Decay rate: 1.30e-06 rev/day^2
Epoch rev: 95412
Checksum: 345
Satellite: GO-32
Catalog number: 25397
Epoch time: 12011.92312064
Element set: 0679
Inclination: 098.3459 deg
RA of node: 358.5226 deg
Eccentricity: 0.0001933
Arg of perigee: 048.6499 deg
Mean anomaly: 311.4858 deg
Mean motion: 14.23252427 rev/day
Decay rate: 1.50e-06 rev/day^2
Epoch rev: 70165
Checksum: 307
Satellite: NO-44
Catalog number: 26931
Epoch time: 12011.78929416
Element set: 0944
Inclination: 067.0504 deg
RA of node: 165.9863 deg
Eccentricity: 0.0005351
Arg of perigee: 278.9060 deg
Mean anomaly: 081.1442 deg
Mean motion: 14.29749634 rev/day
Decay rate: 3.43e-06 rev/day^2
Epoch rev: 53674
Checksum: 317
Satellite: SO-50
Catalog number: 27607
Epoch time: 12011.51509788
Element set: 660
Inclination: 064.5593 deg
RA of node: 054.4586 deg
Eccentricity: 0.0084765
Arg of perigee: 279.0467 deg
Mean anomaly: 080.1016 deg
Mean motion: 14.72155553 rev/day
Decay rate: 8.62e-06 rev/day^2
Epoch rev: 48675
Checksum: 326
Satellite: CO-55
Catalog number: 27844
Epoch time: 12011.61819261
Element set: 285
Inclination: 098.7046 deg
RA of node: 022.2873 deg
Eccentricity: 0.0009495
Arg of perigee: 321.6650 deg
Mean anomaly: 038.3855 deg
Mean motion: 14.20944356 rev/day
Decay rate: 2.87e-06 rev/day^2
Epoch rev: 44251
Checksum: 310
Satellite: CO-57
Catalog number: 27848
Epoch time: 12011.66530627
Element set: 0234
Inclination: 098.7135 deg
RA of node: 021.6009 deg
Eccentricity: 0.0009303
Arg of perigee: 327.1736 deg
Mean anomaly: 032.8843 deg
Mean motion: 14.20706530 rev/day
Decay rate: 2.30e-06 rev/day^2
Epoch rev: 44246
Checksum: 276
Satellite: AO-51
Catalog number: 28375
Epoch time: 12011.86628282
Element set: 166
Inclination: 098.1246 deg
RA of node: 344.6561 deg
Eccentricity: 0.0083411
Arg of perigee: 156.9138 deg
Mean anomaly: 203.5821 deg
Mean motion: 14.40882338 rev/day
Decay rate: 1.98e-06 rev/day^2
Epoch rev: 39611
Checksum: 310
Satellite: CP3
Catalog number: 31129
Epoch time: 12012.48136680
Element set: 66
Inclination: 097.8864 deg
RA of node: 029.4810 deg
Eccentricity: 0.0100284
Arg of perigee: 250.2489 deg
Mean anomaly: 108.7839 deg
Mean motion: 14.52847144 rev/day
Decay rate: 6.96e-06 rev/day^2
Epoch rev: 25122
Checksum: 302
Satellite: CO-65
Catalog number: 32785
Epoch time: 12012.68744711
Element set: 201
Inclination: 097.8219 deg
RA of node: 077.3186 deg
Eccentricity: 0.0014123
Arg of perigee: 209.9445 deg
Mean anomaly: 150.0946 deg
Mean motion: 14.82609605 rev/day
Decay rate: 1.476e-05 rev/day^2
Epoch rev: 20057
Checksum: 302
Satellite: PRISM
Catalog number: 33493
Epoch time: 12012.70709943
Element set: 324
Inclination: 098.1476 deg
RA of node: 149.8690 deg
Eccentricity: 0.0020255
Arg of perigee: 084.8019 deg
Mean anomaly: 275.5507 deg
Mean motion: 14.83037572 rev/day
Decay rate: 2.917e-05 rev/day^2
Epoch rev: 16055
Checksum: 307
Satellite: SOHLA-1
Catalog number: 33496
Epoch time: 12011.85737865
Element set: 0632
Inclination: 098.0938 deg
RA of node: 124.7887 deg
Eccentricity: 0.0006535
Arg of perigee: 172.3133 deg
Mean anomaly: 187.8172 deg
Mean motion: 14.69838417 rev/day
Decay rate: 3.34e-06 rev/day^2
Epoch rev: 15913
Checksum: 328
Satellite: TISAT-1
Catalog number: 36799
Epoch time: 12012.66648805
Element set: 597
Inclination: 098.0798 deg
RA of node: 087.8196 deg
Eccentricity: 0.0014426
Arg of perigee: 323.4847 deg
Mean anomaly: 036.5372 deg
Mean motion: 14.81408843 rev/day
Decay rate: 1.794e-05 rev/day^2
Epoch rev: 8131
Checksum: 343
Satellite: STUDSAT
Catalog number: 36801
Epoch time: 12011.91963512
Element set: 0361
Inclination: 098.0849 deg
RA of node: 087.2156 deg
Eccentricity: 0.0012633
Arg of perigee: 312.3938 deg
Mean anomaly: 047.6191 deg
Mean motion: 14.82823225 rev/day
Decay rate: 4.719e-05 rev/day^2
Epoch rev: 08120
Checksum: 285
Satellite: OOREOS
Catalog number: 37224
Epoch time: 11330.25217324
Element set: 0033
Inclination: 071.9741 deg
RA of node: 041.3371 deg
Eccentricity: 0.0020052
Arg of perigee: 337.4654 deg
Mean anomaly: 022.5620 deg
Mean motion: 14.77385090 rev/day
Decay rate: 2.151e-05 rev/day^2
Epoch rev: 00594
Checksum: 243
Satellite: FO-69
Catalog number: 37227
Epoch time: 12011.43277023
Element set: 0074
Inclination: 071.9718 deg
RA of node: 300.0155 deg
Eccentricity: 0.0018854
Arg of perigee: 254.6661 deg
Mean anomaly: 105.2417 deg
Mean motion: 14.76890019 rev/day
Decay rate: 5.46e-06 rev/day^2
Epoch rev: 01280
Checksum: 284
Satellite: FO-70
Catalog number: 37380
Epoch time: 12011.34442304
Element set: 0077
Inclination: 071.9757 deg
RA of node: 300.5718 deg
Eccentricity: 0.0019422
Arg of perigee: 251.9794 deg
Mean anomaly: 107.9251 deg
Mean motion: 14.76648516 rev/day
Decay rate: 5.54e-06 rev/day^2
Epoch rev: 01268
Checksum: 300
/EX
SB KEPS @ AMSAT $ORB12012.W
Orbital Elements 12012.WEATHER
HR AMSAT ORBITAL ELEMENTS FOR WEATHER SATELLITES
FROM WA5QGD FORT WORTH,TX January 12, 2012
Send SUBSCRIBE KEPS/UNSUBSCRIBE KEPS to majordomo(a)amsat.org only
BID: ORB12012.W
TO ALL RADIO AMATEURS BT
Satellite: NOAA-10
Catalog number: 16969
Epoch time: 12012.64800777
Element set: 777
Inclination: 098.6000 deg
RA of node: 044.3587 deg
Eccentricity: 0.0011829
Arg of perigee: 336.8665 deg
Mean anomaly: 023.1977 deg
Mean motion: 14.27519951 rev/day
Decay rate: 1.8e-07 rev/day^2
Epoch rev: 31753
Checksum: 322
Satellite: NOAA-11
Catalog number: 19531
Epoch time: 12012.30325286
Element set: 778
Inclination: 098.7423 deg
RA of node: 100.7191 deg
Eccentricity: 0.0010792
Arg of perigee: 315.4378 deg
Mean anomaly: 044.5935 deg
Mean motion: 14.14948802 rev/day
Decay rate: 5.2e-07 rev/day^2
Epoch rev: 20232
Checksum: 278
